Probability
16 19 26 39 48 13 0 0 0 0 0 0 3 3 3 0 0 3 13 10 13 23 42 45 61 65 68 65 61 61 65 61 61 58 61 65 61 58 55 58 68 61 65 65 65 55 58 55 58
23 26 35 52 16 0 0 0 0 0 0 0 6 6 0 0 3 6 10 16 16 19 32 42 61 65 61 61 58 55 61 55 52 55 58 61 61 58 52 65 58 61 61 61 65 65 55 58 55
23 26 45 19 0 0 0 0 0 0 0 3 6 0 0 3 3 6 10 13 10 26 32 45 58 61 58 65 65 61 61 61 58 52 52 55 58 58 55 55 55 52 48 55 55 52 39 52 52
35 45 32 3 0 0 0 0 0 3 3 3 3 0 3 3 3 10 10 13 16 23 35 45 61 58 55 61 65 61 58 52 52 52 55 55 58 58 58 58 55 48 48 48 52 48 55 65 65
42 32 13 6 0 0 3 0 3 3 3 3 3 0 3 13 16 13 19 19 16 16 32 42 58 55 52 58 52 52 52 58 48 52 58 61 58 58 55 52 55 45 48 48 52 58 58 52 52
42 16 6 0 0 0 3 3 3 3 3 3 3 3 13 19 19 16 16 19 19 16 26 39 52 52 52 52 52 55 55 55 52 45 48 55 52 55 52 58 61 55 55 48 52 52 58 58 39
32 19 6 3 0 3 3 3 6 3 0 3 3 3 13 26 16 16 19 19 13 19 23 32 32 42 42 52 48 55 45 45 45 52 45 45 45 52 48 52 48 48 48 52 52 48 52 45 52
29 23 6 3 0 0 0 3 6 6 6 10 6 3 10 23 19 19 23 23 19 23 23 32 39 45 48 39 42 45 42 42 42 45 42 58 45 45 48 52 55 52 48 52 52 48 55 58 52
29 19 6 0 0 0 0 3 0 6 6 10 13 13 13 19 19 23 29 29 29 26 32 29 35 45 45 39 32 39 48 39 42 48 52 55 48 29 39 42 42 42 45 48 48 48 58 55 48
10 13 0 0 0 0 0 0 0 0 6 10 13 10 19 19 19 23 26 26 23 26 29 32 32 35 45 35 48 48 45 48 58 58 58 61 55 45 29 42 42 39 39 42 42 42 48 39 23
6 6 3 3 0 0 0 0 0 0 6 10 13 16 19 19 19 23 26 26 29 26 32 29 32 35 35 39 39 55 48 58 45 48 65 65 48 35 35 39 39 42 39 32 39 35 16 19 16
6 3 3 10 0 0 6 6 10 10 10 3 10 16 10 13 13 16 19 23 23 26 26 29 32 35 39 42 32 42 42 35 45 52 61 61 58 55 39 42 29 32 42 45 39 48 35 23 26
6 3 3 3 3 6 6 6 6 6 0 0 6 13 10 13 13 19 23 19 23 29 29 29 32 35 45 48 42 32 39 32 39 48 48 55 52 52 39 55 55 32 42 45 45 39 48 45 29
3 3 3 6 6 3 3 0 3 3 3 3 13 13 10 13 13 19 19 19 16 23 32 29 26 35 52 52 55 45 39 55 45 45 48 55 55 52 55 55 61 45 52 52 48 39 42 42 35
0 0 3 3 0 3 0 0 3 3 3 3 13 13 10 10 19 19 26 23 13 19 23 26 26 29 52 52 55 48 42 42 48 52 52 55 45 58 61 58 61 55 48 61 65 52 45 42 39
0 3 0 0 0 0 0 0 3 6 3 3 10 16 19 23 16 23 23 23 16 19 35 32 10 26 45 52 48 45 45 42 42 42 52 52 52 52 61 55 52 55 55 58 65 52 39 52 45
0 0 0 3 3 3 3 3 6 6 6 3 16 16 19 19 26 23 23 23 19 32 45 48 45 42 45 52 58 48 48 48 45 52 52 48 55 58 45 52 48 48 45 48 35 42 48 48 48
0 0 0 3 3 3 0 3 6 6 3 3 10 19 19 26 26 29 29 19 29 45 52 55 48 52 48 61 65 55 52 42 52 52 52 48 48 48 42 42 45 52 55 55 55 61 58 68 68
0 0 3 10 3 6 3 3 6 3 10 10 13 23 26 26 29 32 35 32 32 52 55 61 55 61 65 61 58 58 45 48 39 48 48 48 52 42 52 45 52 48 52 58 48 52 52 55 58
0 0 3 6 3 3 3 3 6 3 10 10 13 19 23 26 29 35 42 42 42 55 58 61 65 61 55 65 65 61 58 48 42 39 45 45 48 45 39 52 48 55 55 58 52 52 52 48 52
0 0 3 10 6 3 0 6 10 10 3 13 16 13 13 23 19 29 39 42 42 48 55 48 61 58 58 61 61 58 58 55 45 45 45 48 45 45 48 48 45 55 52 52 55 52 55 52 52
0 0 3 6 10 6 6 3 10 10 19 10 16 13 13 16 23 26 32 45 48 48 52 65 71 68 71 68 61 58 58 48 55 55 48 52 52 48 48 48 45 45 45 52 48 48 55 55 48
0 0 6 3 0 0 0 0 10 13 13 6 13 19 16 23 19 23 32 45 48 48 48 55 68 74 74 71 61 65 55 45 48 45 48 55 55 58 48 52 42 45 45 45 45 48 48 48 48
0 3 3 3 0 0 0 0 3 6 3 6 16 19 16 23 26 29 35 39 48 48 52 52 65 71 71 61 65 61 58 52 52 52 45 45 42 42 42 42 39 42 39 42 52 52 48 48 52
0 0 0 0 0 0 3 3 3 6 0 6 16 19 23 26 26 29 39 45 52 55 55 55 71 68 74 65 58 52 52 48 58 48 48 48 39 35 45 39 48 42 45 42 42 42 42 42 48
0 0 0 0 0 0 0 3 6 6 6 10 19 23 26 29 32 35 35 48 52 52 58 61 74 74 71 68 58 55 48 42 45 45 45 39 32 32 39 45 45 42 39 39 39 35 39 42 48
0 0 0 0 0 0 0 3 6 10 16 13 26 29 32 32 35 39 35 39 42 39 48 48 55 58 61 61 61 61 55 52 48 42 42 39 39 35 45 45 45 42 39 39 42 42 39 42 45
0 0 0 0 0 0 0 3 3 19 23 19 29 32 35 32 42 42 39 35 42 42 45 35 39 52 52 55 55 48 58 52 45 48 48 45 42 45 42 48 45 45 45 42 42 42 32 35 35
0 0 0 0 0 0 0 3 6 19 19 23 29 35 32 29 39 39 42 45 42 35 39 39 35 39 48 48 52 45 52 52 48 48 48 48 45 45 45 45 45 42 39 39 39 39 32 35 39
0 0 0 0 0 0 0 3 6 19 23 23 29 29 35 42 39 35 35 35 39 35 32 32 39 35 39 45 45 45 45 42 42 42 48 48 42 42 42 39 39 39 39 42 39 35 32 35 35
Height
5902 5902 5902 5902 5903 5902 5901 5901 5900 5899 5898 5898 5897 5897 5897 5897 5897 5899 5896 5894 5894 5894 5893 5893 5893 5893 5892 5892 5892 5892 5893 5893 5894 5894 5894 5895 5895 5896 5896 5896 5896 5896 5896 5896 5896 5896 5896 5895 5895
5904 5904 5905 5905 5904 5905 5904 5902 5901 5900 5900 5899 5898 5898 5897 5897 5897 5896 5896 5895 5895 5895 5894 5894 5894 5894 5894 5894 5894 5893 5894 5894 5895 5895 5895 5896 5896 5896 5897 5897 5897 5897 5896 5896 5896 5896 5896 5895 5895
5907 5906 5907 5907 5906 5906 5906 5904 5903 5902 5901 5900 5899 5899 5899 5898 5898 5897 5897 5896 5896 5896 5895 5895 5895 5895 5895 5895 5895 5895 5895 5895 5896 5896 5896 5896 5897 5897 5897 5897 5897 5897 5897 5897 5897 5896 5896 5896 5895
5909 5910 5910 5910 5908 5908 5907 5906 5904 5903 5902 5901 5901 5900 5899 5899 5899 5898 5898 5897 5897 5897 5896 5896 5896 5896 5896 5896 5896 5896 5896 5896 5897 5897 5897 5897 5897 5897 5898 5898 5898 5898 5897 5898 5897 5897 5896 5896 5895
5912 5912 5913 5912 5911 5910 5909 5907 5906 5905 5904 5903 5902 5901 5901 5900 5900 5899 5899 5898 5898 5898 5897 5898 5897 5898 5898 5897 5897 5898 5898 5897 5897 5897 5897 5897 5898 5898 5898 5898 5898 5898 5898 5898 5897 5897 5896 5896 5895
5915 5915 5916 5915 5913 5912 5911 5909 5908 5907 5905 5904 5904 5903 5902 5901 5901 5900 5900 5900 5899 5899 5899 5899 5899 5899 5899 5899 5899 5899 5898 5898 5898 5898 5898 5898 5898 5898 5898 5898 5898 5898 5898 5898 5897 5897 5896 5895 5895
5918 5918 5917 5917 5915 5914 5913 5911 5909 5908 5907 5906 5905 5904 5903 5902 5902 5901 5901 5901 5901 5901 5900 5900 5900 5900 5900 5900 5900 5900 5899 5899 5898 5898 5898 5898 5898 5898 5898 5898 5898 5898 5898 5897 5897 5896 5896 5895 5895
5920 5921 5920 5919 5918 5916 5915 5913 5911 5910 5909 5908 5907 5906 5905 5904 5903 5902 5902 5902 5902 5902 5901 5901 5901 5901 5901 5900 5900 5900 5900 5899 5899 5899 5899 5898 5898 5898 5898 5897 5897 5897 5897 5897 5897 5896 5896 5895 5894
5922 5923 5922 5921 5920 5918 5916 5915 5913 5911 5910 5909 5908 5907 5906 5905 5904 5903 5903 5903 5902 5902 5902 5902 5902 5902 5901 5901 5901 5900 5900 5900 5899 5899 5899 5898 5898 5898 5897 5897 5897 5896 5896 5896 5896 5896 5895 5894 5894
5924 5925 5924 5922 5921 5919 5918 5916 5915 5913 5912 5911 5909 5908 5907 5906 5905 5904 5904 5903 5903 5903 5903 5903 5903 5902 5902 5901 5901 5900 5900 5900 5899 5899 5899 5898 5898 5897 5897 5896 5896 5896 5895 5895 5895 5895 5894 5893 5893
5926 5926 5925 5923 5922 5921 5919 5918 5916 5915 5913 5912 5911 5909 5908 5907 5906 5905 5904 5904 5904 5903 5903 5903 5903 5903 5902 5902 5901 5901 5900 5900 5899 5899 5899 5898 5898 5897 5896 5896 5895 5895 5894 5894 5894 5893 5893 5892 5892
5928 5927 5926 5925 5924 5922 5921 5919 5918 5916 5915 5913 5912 5911 5909 5908 5907 5906 5905 5905 5904 5904 5904 5904 5904 5903 5902 5902 5901 5901 5900 5900 5899 5899 5898 5898 5898 5897 5896 5896 5895 5894 5893 5892 5892 5892 5891 5891 5890
5929 5929 5927 5926 5925 5923 5922 5921 5920 5918 5916 5914 5913 5911 5910 5909 5908 5907 5906 5905 5905 5904 5904 5904 5904 5903 5903 5902 5901 5901 5901 5900 5899 5899 5899 5898 5898 5897 5896 5895 5894 5893 5893 5892 5891 5891 5890 5889 5888
5930 5930 5928 5927 5926 5925 5923 5922 5921 5919 5917 5916 5914 5912 5911 5910 5908 5907 5906 5906 5905 5905 5904 5904 5903 5903 5903 5902 5901 5901 5900 5900 5899 5899 5898 5898 5897 5896 5896 5895 5894 5893 5892 5892 5891 5890 5889 5888 5887
5931 5931 5930 5929 5927 5926 5925 5924 5922 5920 5919 5917 5915 5913 5912 5910 5909 5908 5907 5906 5905 5905 5904 5904 5903 5903 5902 5902 5901 5900 5900 5899 5899 5898 5898 5897 5896 5896 5895 5895 5894 5893 5892 5891 5890 5889 5888 5887 5886
5932 5932 5932 5930 5928 5927 5928 5926 5923 5921 5920 5918 5916 5914 5913 5911 5909 5908 5907 5906 5906 5905 5904 5904 5903 5902 5902 5901 5901 5900 5899 5899 5898 5897 5897 5896 5895 5895 5894 5893 5893 5892 5891 5890 5889 5888 5887 5886 5884
5933 5933 5933 5931 5929 5928 5928 5927 5924 5922 5921 5919 5917 5915 5914 5912 5910 5909 5908 5907 5906 5905 5904 5903 5903 5902 5902 5901 5900 5899 5899 5898 5897 5897 5896 5895 5894 5894 5893 5892 5891 5890 5889 5888 5887 5886 5885 5884 5882
5933 5933 5932 5931 5930 5929 5928 5927 5925 5923 5921 5919 5918 5916 5914 5913 5911 5909 5908 5907 5906 5905 5904 5903 5902 5902 5901 5900 5900 5899 5898 5897 5896 5896 5895 5894 5893 5893 5892 5891 5890 5889 5888 5887 5886 5884 5883 5882 5880
5931 5932 5932 5931 5930 5929 5928 5927 5925 5924 5922 5920 5918 5916 5914 5913 5911 5910 5908 5906 5906 5905 5904 5903 5902 5902 5900 5900 5899 5898 5897 5896 5896 5895 5894 5893 5892 5891 5890 5889 5888 5887 5886 5885 5883 5882 5881 5879 5878
5930 5930 5931 5930 5929 5929 5928 5927 5926 5924 5922 5920 5918 5916 5914 5913 5911 5910 5908 5907 5905 5904 5904 5903 5902 5901 5900 5899 5898 5897 5896 5895 5894 5894 5893 5892 5891 5890 5889 5887 5886 5885 5884 5883 5881 5880 5878 5877 5875
5928 5929 5929 5929 5928 5928 5928 5928 5925 5924 5922 5920 5918 5916 5914 5913 5911 5910 5908 5907 5905 5904 5903 5902 5901 5900 5899 5898 5897 5895 5894 5893 5893 5892 5891 5890 5889 5888 5886 5885 5884 5883 5881 5880 5879 5877 5876 5874 5872
5926 5926 5927 5927 5927 5928 5927 5928 5925 5923 5921 5919 5917 5916 5914 5912 5911 5909 5908 5906 5905 5904 5902 5901 5900 5899 5898 5896 5895 5894 5893 5892 5891 5889 5888 5887 5886 5885 5884 5882 5881 5880 5878 5877 5876 5874 5872 5871 5869
5924 5924 5925 5925 5925 5926 5926 5926 5925 5921 5920 5918 5916 5915 5913 5911 5910 5908 5907 5905 5904 5903 5901 5900 5899 5897 5896 5895 5894 5892 5891 5890 5888 5887 5886 5885 5883 5882 5881 5879 5878 5876 5875 5873 5872 5870 5869 5867 5865
5921 5922 5923 5923 5924 5925 5924 5924 5923 5920 5918 5917 5915 5913 5911 5910 5908 5907 5906 5904 5903 5902 5900 5898 5897 5896 5894 5893 5892 5890 5889 5887 5886 5885 5883 5882 5880 5879 5877 5876 5874 5873 5871 5870 5868 5866 5864 5863 5861
5919 5921 5923 5923 5923 5923 5921 5920 5920 5918 5916 5915 5913 5911 5909 5908 5907 5905 5904 5903 5901 5900 5898 5897 5895 5894 5892 5891 5890 5888 5886 5885 5883 5882 5880 5879 5877 5875 5874 5872 5871 5869 5867 5865 5863 5862 5860 5858 5856
5915 5918 5920 5921 5922 5921 5918 5917 5917 5915 5913 5912 5910 5909 5907 5905 5904 5903 5901 5900 5899 5898 5896 5895 5893 5892 5890 5888 5887 5885 5884 5882 5881 5879 5877 5875 5873 5872 5870 5868 5866 5864 5863 5861 5859 5857 5855 5853 5851
5911 5913 5915 5916 5916 5916 5916 5914 5912 5911 5910 5909 5907 5906 5904 5903 5901 5900 5899 5898 5896 5895 5893 5892 5890 5888 5887 5885 5884 5882 5880 5879 5877 5875 5874 5872 5870 5868 5866 5863 5861 5859 5858 5856 5854 5852 5850 5848 5846
5907 5908 5910 5911 5911 5912 5912 5911 5910 5908 5906 5905 5904 5902 5901 5899 5898 5896 5895 5894 5893 5891 5890 5888 5887 5885 5883 5881 5879 5878 5876 5875 5873 5871 5869 5867 5865 5863 5861 5859 5857 5855 5853 5851 5848 5846 5844 5842 5840
5902 5903 5904 5906 5906 5908 5909 5910 5905 5903 5902 5901 5900 5898 5897 5896 5894 5892 5891 5890 5889 5887 5886 5884 5883 5881 5879 5877 5875 5873 5872 5870 5868 5866 5864 5862 5860 5858 5856 5854 5852 5849 5847 5845 5843 5840 5838 5836 5834
5896 5897 5899 5901 5900 5900 5902 5905 5900 5899 5897 5896 5895 5894 5893 5891 5890 5889 5887 5886 5884 5883 5882 5880 5878 5877 5875 5872 5870 5869 5867 5865 5863 5861 5859 5857 5855 5853 5851 5848 5846 5843 5841 5838 5836 5834 5832 5829 5827
Wind_Speed
14 14 13 13 14 15 13 12 12 11 11 11 11 10 10 10 9 9 8 8 8 8 8 9 8 8 8 8 8 9 9 9 8 9 9 9 8 7 6 6 5 4 4 4 3 4 3 2 2
15 15 14 14 16 14 12 12 12 12 12 11 11 11 10 10 9 9 8 8 7 8 8 8 8 7 7 8 8 9 9 9 8 8 8 8 7 6 6 5 5 4 4 3 3 3 3 3 3
16 15 15 16 15 13 12 11 12 12 12 12 12 11 10 9 9 9 8 8 8 8 8 7 7 7 8 8 8 8 8 8 7 7 8 7 7 6 5 5 4 4 3 3 3 2 2 2 2
16 15 15 16 14 13 12 12 12 12 12 12 11 11 10 9 9 9 8 8 8 8 7 7 7 8 8 8 7 7 7 6 6 7 7 6 6 5 4 4 3 3 3 2 1 1 1 1 1
15 16 16 15 14 13 12 12 12 12 12 12 12 11 10 10 9 8 8 8 8 7 7 8 8 8 8 8 7 7 6 6 6 6 6 6 5 4 4 3 3 3 2 1 1 0 1 1 1
16 16 15 14 14 14 13 12 12 12 12 12 12 11 11 10 9 8 7 7 7 7 7 8 8 8 8 7 6 6 6 5 5 5 5 5 4 4 3 3 3 2 2 1 0 0 1 1 1
16 16 15 15 14 14 13 13 12 12 12 12 11 10 10 9 8 7 7 7 7 6 6 7 7 7 7 7 6 6 6 5 5 5 5 4 4 3 3 2 2 2 2 1 0 1 1 1 1
14 15 15 14 14 13 12 12 12 12 12 11 11 10 10 9 8 7 7 6 6 5 6 5 5 5 5 5 5 5 5 5 5 4 4 3 3 3 2 1 1 2 2 2 1 1 1 2 2
13 14 13 13 13 12 13 12 12 12 11 10 10 10 9 9 8 6 6 6 5 5 4 4 4 4 4 4 4 4 4 4 4 3 3 3 3 2 1 1 1 1 2 3 3 3 3 3 3
12 12 12 12 12 12 12 12 11 10 10 10 9 9 8 8 8 7 6 5 5 5 4 4 4 3 4 4 4 4 4 4 3 3 3 2 2 2 1 0 0 1 2 3 3 4 4 4 4
10 11 11 11 11 11 11 11 11 10 9 9 8 8 8 7 8 7 6 5 5 4 4 4 4 4 5 4 4 4 3 3 3 3 2 2 2 2 1 0 1 1 2 3 3 4 5 5 6
9 10 10 10 10 10 11 11 11 10 9 8 8 7 8 7 7 6 5 5 4 4 4 3 3 3 4 4 4 4 3 3 2 2 2 2 1 1 1 1 1 2 2 2 3 4 5 6 6
8 8 8 9 10 10 10 10 10 10 9 8 8 7 6 6 6 6 5 5 4 4 3 2 2 2 3 3 3 3 3 2 1 2 1 1 1 1 1 2 2 2 3 3 4 5 6 7 7
6 7 7 7 8 9 9 9 9 9 9 8 7 7 6 5 5 5 4 4 4 3 2 1 1 2 1 1 1 1 2 0 0 0 1 1 1 1 2 3 3 3 3 4 5 6 6 7 6
4 5 6 6 6 7 8 9 8 8 8 8 7 7 6 5 5 4 3 3 3 2 2 1 0 1 1 1 1 1 1 1 1 1 1 1 1 2 2 3 4 4 5 5 6 6 6 6 7
2 4 5 4 5 6 7 7 7 7 7 8 8 8 7 6 5 4 3 3 2 2 2 1 1 1 1 1 1 2 2 2 2 2 2 2 2 2 3 4 5 5 5 6 6 6 7 7 8
1 1 2 3 4 5 6 7 7 7 7 8 8 8 8 7 5 4 3 3 3 2 2 2 1 1 1 2 2 3 3 4 4 3 3 3 3 4 4 5 5 5 6 6 7 7 8 8 9
4 3 1 1 3 4 5 6 7 7 7 8 8 8 8 7 6 4 4 3 3 3 3 2 2 2 2 2 3 4 4 4 4 4 4 4 5 5 5 6 6 7 7 8 8 9 9 9 10
5 4 4 3 2 3 3 4 6 6 7 7 8 7 7 7 6 4 4 4 3 4 4 3 3 3 3 4 4 4 5 5 5 5 5 5 6 6 7 7 8 8 9 9 10 10 11 11 12
6 5 5 4 4 3 3 4 5 5 6 7 7 7 7 7 6 5 4 4 4 3 4 4 5 5 6 6 6 6 6 7 7 6 6 7 7 8 8 9 9 10 11 11 11 11 12 13 13
7 7 7 6 5 5 5 6 6 7 6 6 7 7 7 7 6 6 6 5 5 5 5 5 5 6 7 7 7 7 7 7 7 7 8 8 8 9 9 10 11 12 12 13 13 13 13 13 14
9 9 8 7 6 6 6 6 8 8 8 8 7 8 7 7 7 7 7 7 6 6 6 6 6 7 8 8 9 8 8 9 10 9 9 9 10 10 11 12 12 13 13 14 14 14 14 15 15
11 10 10 9 8 8 8 7 9 10 9 8 8 9 8 8 8 8 8 7 7 7 7 7 8 9 9 9 9 10 10 10 10 10 10 11 11 12 12 13 13 14 14 15 16 16 16 16 16
12 11 11 11 10 10 10 8 9 10 10 10 10 10 10 10 9 9 9 9 8 9 9 9 10 10 11 11 11 11 11 11 12 12 13 13 13 14 14 15 15 15 15 16 17 18 18 17 18
13 11 11 11 11 12 12 11 11 11 11 12 12 12 11 12 11 10 10 10 10 11 11 11 12 12 12 12 13 13 14 13 13 14 14 14 15 15 15 16 16 17 17 18 19 19 19 20 20
15 14 13 12 11 12 13 13 12 12 12 12 13 13 13 13 13 13 12 12 12 13 13 13 13 14 14 14 14 15 15 15 14 15 15 16 16 16 17 17 18 19 19 20 20 20 21 21 21
18 17 16 15 14 13 14 15 14 13 13 14 14 14 14 14 15 14 14 14 14 15 15 15 15 16 16 16 16 15 15 16 16 16 16 16 17 18 18 18 19 20 20 21 21 20 21 21 21
20 19 18 16 15 14 15 15 15 15 15 15 15 16 16 16 16 15 15 15 15 16 17 17 18 18 18 19 18 16 17 17 18 18 19 19 19 19 19 19 20 21 21 21 22 22 22 22 22
22 22 20 19 19 16 15 16 16 16 16 16 16 17 17 17 18 17 17 17 17 17 18 18 18 18 18 19 19 19 19 20 20 20 20 21 21 20 21 22 23 23 23 24 24 24 24 24 24
23 23 21 21 21 20 18 19 18 17 17 17 18 18 18 18 18 18 18 19 19 19 19 20 19 19 19 20 20 21 21 21 22 22 22 22 22 22 23 24 25 25 25 26 26 26 26 26 26
Wind_Direction
86 85 85 84 80 77 83 86 90 92 93 96 97 98 99 99 100 103 105 105 100 99 101 100 104 106 109 114 124 128 132 135 136 140 136 132 133 131 130 128 126 129 135 127 121 118 117 111 104
86 85 84 84 82 81 85 88 89 90 90 92 94 96 97 96 97 100 101 101 100 99 102 103 105 108 110 115 121 127 130 131 133 132 128 130 130 127 126 125 126 126 135 125 115 114 106 99 99
82 83 83 80 81 85 86 87 85 88 85 88 89 91 93 93 92 95 98 99 100 100 103 107 107 109 112 116 119 123 127 129 133 129 127 128 129 127 127 125 127 131 131 118 107 103 99 105 101
80 80 80 77 77 81 83 81 83 82 82 84 85 88 90 90 89 90 94 98 100 101 103 108 112 114 115 116 116 123 127 131 134 134 131 129 126 127 131 127 128 128 123 119 81 59 89 91 82
79 77 76 74 76 78 79 78 79 79 80 83 84 85 86 86 87 88 91 94 98 101 105 110 114 117 119 119 121 127 131 136 138 138 140 135 131 132 140 142 129 130 116 110 77 96 68 73 69
79 76 78 78 76 77 76 76 79 80 80 81 82 83 83 81 84 85 92 95 98 104 109 112 113 118 121 119 119 127 127 133 137 137 140 144 142 145 149 154 145 143 146 140 129 124 73 40 18
78 79 78 75 73 74 74 75 78 78 79 78 76 77 77 78 82 86 92 98 102 107 115 119 118 118 120 120 122 127 130 132 137 141 140 142 149 150 159 160 160 167 172 182 274 30 17 354 341
81 80 75 72 71 69 71 73 75 77 76 76 73 72 73 75 80 85 89 98 106 112 118 125 125 125 128 128 129 132 133 133 135 136 144 148 148 142 144 155 177 197 207 224 255 288 324 320 316
83 80 75 73 70 66 66 68 68 72 74 74 70 69 71 70 73 79 89 100 106 111 117 122 132 134 134 132 134 144 147 140 134 130 129 138 145 141 137 156 179 213 219 224 246 267 277 292 299
86 80 74 71 68 65 63 61 62 66 69 71 72 71 70 68 69 75 88 101 107 109 112 117 122 133 137 132 133 135 144 150 132 124 121 130 135 130 126 151 230 256 243 233 244 261 270 278 288
85 76 69 62 62 62 58 55 53 57 58 60 61 62 64 61 65 74 80 88 98 102 107 111 120 128 137 136 129 126 131 145 143 131 114 112 104 89 78 25 328 301 274 252 253 258 264 276 287
85 74 66 58 58 57 56 54 52 52 51 51 52 50 54 58 60 63 73 80 87 96 106 107 116 135 140 140 132 128 126 138 154 147 132 118 94 66 49 18 317 312 312 283 277 274 274 276 279
83 74 65 57 54 54 54 51 51 48 46 46 45 42 46 57 56 56 64 77 80 85 90 97 110 141 151 152 140 126 122 122 144 149 135 121 65 25 11 359 338 326 323 300 295 299 295 288 282
83 70 61 55 51 52 52 49 47 46 44 43 41 38 38 46 47 50 62 67 63 59 56 69 113 128 160 174 174 115 85 99 191 258 274 284 333 353 360 358 352 335 317 302 299 304 303 295 295
87 69 55 52 52 48 47 46 41 37 36 36 34 34 35 41 41 44 46 52 50 38 28 31 126 184 223 236 221 153 32 315 307 286 277 277 300 319 330 334 337 335 324 312 304 302 300 296 291
71 60 48 39 46 39 40 40 33 32 29 27 29 28 27 30 36 41 35 29 22 11 6 1 350 287 272 252 241 248 282 297 304 300 302 308 309 312 319 320 320 322 322 317 313 305 297 296 295
9 59 36 22 33 38 42 39 32 31 27 23 26 25 25 27 29 32 28 19 6 355 348 347 341 334 306 277 278 274 284 289 290 287 292 299 303 302 305 309 306 306 311 312 312 309 299 298 301
221 228 252 338 18 30 33 28 23 27 24 20 20 18 18 19 15 18 23 18 2 358 356 355 356 333 317 310 306 295 291 288 287 283 283 292 296 297 299 303 301 298 302 304 304 306 300 297 298
232 239 254 269 330 8 15 6 359 10 11 12 13 11 7 4 359 5 5 2 352 349 347 340 327 325 316 311 312 309 298 288 287 286 285 290 295 297 302 302 296 295 298 300 300 301 298 298 296
240 246 258 267 287 314 329 334 337 343 349 358 1 1 358 355 353 350 347 347 337 329 336 333 320 314 314 309 305 304 299 289 286 288 286 290 295 296 298 302 298 293 295 297 294 295 295 297 296
245 249 254 266 284 294 302 318 314 320 328 337 344 349 345 342 344 340 339 334 325 319 315 317 321 323 317 313 305 300 298 303 298 294 288 291 293 293 292 294 297 297 295 296 293 292 292 293 292
249 253 259 266 278 293 301 309 306 309 316 318 322 325 325 323 325 329 327 326 324 319 314 306 306 308 312 310 305 301 299 297 295 293 293 292 293 295 296 293 293 294 294 293 293 292 290 290 290
250 256 262 270 277 285 294 298 301 304 307 310 311 313 310 309 311 315 315 312 312 314 311 308 305 303 304 304 303 299 297 295 293 293 291 293 295 296 297 297 295 294 293 292 293 292 290 292 291
256 263 268 273 279 281 284 288 293 301 301 302 303 305 303 300 302 306 309 305 302 305 305 305 303 300 299 297 297 294 295 295 294 295 293 293 294 295 295 297 298 297 296 295 293 292 290 290 291
256 262 271 275 274 277 281 281 284 290 294 296 301 302 302 299 298 299 299 301 299 298 299 299 300 299 300 298 298 295 294 296 295 297 297 296 296 295 295 295 298 298 298 297 294 290 291 292 293
251 252 253 258 265 274 281 281 286 287 290 293 297 299 301 301 298 293 291 293 296 296 294 292 292 295 296 294 293 294 293 295 297 298 299 299 299 298 296 295 296 297 298 297 295 291 291 291 291
250 252 257 261 265 268 273 281 284 288 291 292 294 295 297 298 297 291 289 289 292 292 291 288 287 290 293 292 289 289 291 293 296 298 298 297 297 297 295 295 296 296 296 296 296 296 293 291 289
249 255 259 258 261 266 274 280 285 289 291 293 294 293 292 295 295 290 289 290 289 292 292 292 290 290 290 292 290 289 290 292 294 296 297 298 297 300 299 297 297 297 297 296 295 295 293 291 290
250 253 255 258 260 261 268 275 282 285 288 291 292 291 290 291 290 286 285 287 288 289 291 292 291 293 291 290 290 291 289 292 295 295 296 298 299 298 298 299 298 299 299 297 295 292 291 290 289
253 255 257 260 264 263 262 272 278 283 286 289 291 289 287 288 288 286 283 285 287 289 290 291 291 291 291 290 291 291 289 291 293 295 296 297 298 298 298 299 299 300 299 296 294 292 290 289 289